Weather History for KENW - November, 2013

Change the Weather History Date:

Sunday, November 3, 2013

  Actual Average Record
Temperature  
Mean Temperature 41 °F -  
Max Temperature 52 °F 50 °F 75 °F (1978)
Min Temperature 30 °F 36 °F 11 °F (1951)
Degree Days  
Heating Degree Days 24    
Moisture  
Dew Point 33 °F    
Average Humidity 82    
Maximum Humidity 100    
Minimum Humidity 48    
Precipitation  
Precipitation 0.00 in - - ()
Sea Level Pressure  
Sea Level Pressure 30.26 in    
Wind  
Wind Speed 4 mph (SE)    
Max Wind Speed 17 mph    
Max Gust Speed 26 mph    
Visibility 8 miles    
Events Fog    
Averages and records for this station are not official NWS values.
T = Trace of Precipitation, MM = Missing Value Source: NWS Daily Summary

Daily Weather History Graph

Daily Weather History Graph

Search for Another Location

Airport or City:

Trip Planner

Search our weather history database for the weather conditions in past years. The results will help you decide how hot, cold, wet, or windy it might be!

Date:

Astronomy

Nov. 03, 2013 Rise Set
Actual Time 6:28 AM CST 4:41 PM CST
Civil Twilight 5:58 AM CST 5:11 PM CST
Nautical Twilight 5:25 AM CST 5:44 PM CST
Astronomical Twilight 4:52 AM CST 6:17 PM CST
Moon 6:32 AM CST (11/3) 4:55 PM CST (11/3)
Length of Visible Light 11h 12m
Length of Day
10h 13m
New Moon, 0% of the Moon is Illuminated
Nov 3
New Moon
Nov 9
First Quarter
Nov 17
Full
Nov 25
Last Quarter
Dec 2
New

Hourly Weather History & Observations

Time (CST) Temp. Windchill Dew Point Humidity Pressure Visibility Wind Dir Wind Speed Gust Speed Precip Events Conditions
12:53 AM 39.9 °F 36.7 °F 37.0 °F 89% 30.17 in 10.0 mi WNW 4.6 mph - N/A   Overcast
1:53 AM 39.9 °F - 37.0 °F 89% 30.19 in 10.0 mi Calm Calm - N/A   Overcast
1:53 AM 39.0 °F 36.8 °F 36.0 °F 89% 30.21 in 10.0 mi NW 3.5 mph - N/A   Mostly Cloudy
2:53 AM 37.0 °F 34.5 °F 34.0 °F 89% 30.22 in 10.0 mi NNW 3.5 mph - N/A   Clear
3:53 AM 34.0 °F - 30.9 °F 89% 30.24 in 5.0 mi Calm Calm - N/A   Clear
4:18 AM 33.8 °F - 30.2 °F 87% 30.22 in 1.5 mi Calm Calm - N/A   Clear
4:27 AM 32.0 °F - 30.2 °F 93% 30.22 in 0.5 mi Calm Calm - N/A Fog Fog
4:43 AM 30.2 °F - 30.2 °F 100% 30.23 in 2.0 mi Calm Calm - N/A   Clear
4:51 AM 30.2 °F - 28.4 °F 93% 30.23 in 8.0 mi Calm Calm - N/A   Clear
4:53 AM 30.9 °F - 28.9 °F 92% 30.25 in 8.0 mi Calm Calm - N/A   Clear
5:10 AM 30.2 °F - 28.4 °F 93% 30.23 in 1.0 mi Calm Calm - N/A   Clear
5:30 AM 30.2 °F - 28.4 °F 93% 30.24 in 3.0 mi Calm Calm - N/A   Clear
5:40 AM 30.2 °F 26.7 °F 28.4 °F 93% 30.24 in 1.8 mi West 3.5 mph - N/A   Clear
5:53 AM 30.9 °F 26.2 °F 28.9 °F 92% 30.27 in 2.5 mi WNW 4.6 mph - N/A   Clear
6:00 AM 32.0 °F - 30.2 °F 93% 30.25 in 5.0 mi Calm Calm - N/A   Clear
6:35 AM 32.0 °F - 30.2 °F 93% 30.26 in 1.8 mi Calm Calm - N/A   Clear
6:44 AM 30.2 °F - 28.4 °F 93% 30.26 in 10.0 mi Calm Calm - N/A   Clear
6:53 AM 32.0 °F - 30.9 °F 96% 30.29 in 10.0 mi Calm Calm - N/A   Clear
6:56 AM 30.2 °F - 30.2 °F 100% 30.27 in 0.8 mi Calm Calm - N/A   Clear
7:03 AM 30.2 °F - 30.2 °F 100% 30.27 in 10.0 mi Calm Calm - N/A   Clear
7:53 AM 37.9 °F - 36.0 °F 93% 30.31 in 10.0 mi Calm Calm - N/A   Clear
8:53 AM 44.1 °F - 39.0 °F 82% 30.31 in 10.0 mi Calm Calm - N/A   Clear
9:53 AM 48.0 °F - 37.9 °F 68% 30.31 in 10.0 mi ESE 5.8 mph - N/A   Clear
10:53 AM 48.9 °F - 36.0 °F 61% 30.32 in 10.0 mi SE 9.2 mph - N/A   Partly Cloudy
11:53 AM 51.1 °F - 34.0 °F 52% 30.29 in 10.0 mi ESE 6.9 mph - N/A   Scattered Clouds
12:53 PM 52.0 °F - 35.1 °F 53% 30.28 in 10.0 mi ESE 8.1 mph - N/A   Partly Cloudy
1:53 PM 51.1 °F - 32.0 °F 48% 30.27 in 10.0 mi SE 8.1 mph - N/A   Clear
2:53 PM 48.9 °F - 37.0 °F 64% 30.27 in 10.0 mi SE 12.7 mph - N/A   Clear
3:53 PM 48.0 °F - 36.0 °F 63% 30.27 in 10.0 mi SE 11.5 mph - N/A   Clear
4:53 PM 46.0 °F 41.4 °F 37.0 °F 71% 30.28 in 10.0 mi SE 9.2 mph - N/A   Clear
5:53 PM 46.0 °F 41.4 °F 37.0 °F 71% 30.27 in 10.0 mi SE 9.2 mph - N/A   Clear
6:53 PM 46.0 °F 41.0 °F 37.0 °F 71% 30.27 in 10.0 mi SE 10.4 mph - N/A   Clear
7:53 PM 46.9 °F - 37.9 °F 71% 30.27 in 10.0 mi SE 11.5 mph - N/A   Clear
8:53 PM 46.9 °F - 37.9 °F 71% 30.27 in 10.0 mi SE 12.7 mph - N/A   Clear
9:53 PM 46.0 °F 39.6 °F 39.0 °F 76% 30.28 in 10.0 mi SSE 15.0 mph - N/A   Clear
10:53 PM 46.9 °F - 39.0 °F 74% 30.29 in 10.0 mi SSE 17.3 mph 26.5 mph N/A   Clear